Location: Bartshausen
(51.8454°N, 9.8167°E)
Time: 02:58:55
(UTC+00:00)

Cosmos 1980 Rocket - Pass Details

Date: 08 November 2025
Orbit: 829 x 848 km, 71.0° (Epoch: 15 December)

Event Time Altitude Azimuth Distance (km) Brightness Sun altitude
Exits shadow 05:09:27 - 325° (NW) 2,789 4.5 -12.3°
Reaches altitude 10° 05:11:45 10° 346° (NNW) 2,475 4.4 -11.9°
Maximum altitude 05:12:59 11° 358° (N) 2,427 4.5 -11.7°
Drops below altitude 10° 05:14:13 10° 11° (N) 2,473 4.6 -11.5°
Sets 05:19:11 0° 49° (NE) 3,402 5.9 -10.8°
